• In Germany
  • List of Countries
  • For 7 days
  • Water Temperature
  • Satellite Maps
  • Weather Map
  • Weather Widgets
  • user-avatar
    Login

    Hourly Weather Al-Chums

    Today, 17 January, Wednesday

    Time Temperature Precipitation Wind Pressure Humidity
    00:00 +10°C° 0 mm 1 mps 719 mmHg 79%
    01:00 +9°C° 0 mm 1 mps 719 mmHg 79%
    02:00 +9°C° 0 mm 1 mps 718 mmHg 79%
    03:00 +9°C° 0 mm 1 mps 718 mmHg 80%
    04:00 +9°C° 0 mm 1 mps 718 mmHg 80%
    05:00 +8°C° 0 mm 1 mps 718 mmHg 80%
    06:00 +9°C° 0 mm 1 mps 718 mmHg 77%
    07:00 +9°C° 0 mm 2 mps 718 mmHg 74%
    08:00 +9°C° 0 mm 2 mps 718 mmHg 72%
    09:00 +10°C° 0.1 mm 2 mps 718 mmHg 67%
    10:00 +12°C° 0.1 mm 2 mps 717 mmHg 62%
    11:00 +12°C° 0.1 mm 3 mps 717 mmHg 57%
    12:00 +12°C° 0.2 mm 3 mps 717 mmHg 56%
    13:00 +12°C° 0.2 mm 3 mps 717 mmHg 56%
    14:00 +13°C° 0.2 mm 2 mps 716 mmHg 55%
    15:00 +13°C° 0.1 mm 2 mps 716 mmHg 58%
    16:00 +12°C° 0.1 mm 2 mps 716 mmHg 61%
    17:00 +12°C° 0.1 mm 2 mps 716 mmHg 64%
    18:00 +10°C° 0 mm 2 mps 716 mmHg 67%
    19:00 +10°C° 0 mm 2 mps 716 mmHg 69%
    20:00 +10°C° 0 mm 2 mps 716 mmHg 71%
    21:00 +9°C° 0 mm 2 mps 716 mmHg 73%
    22:00 +9°C° 0 mm 2 mps 716 mmHg 74%
    23:00 +9°C° 0 mm 2 mps 716 mmHg 75%

    Tomorrow, 18 January, Thursday

    Time Temperature Precipitation Wind Pressure Humidity
    00:00 +9°C° 0 mm 2 mps 716 mmHg 75%
    01:00 +9°C° 0 mm 2 mps 716 mmHg 76%
    02:00 +9°C° 0 mm 2 mps 716 mmHg 76%
    03:00 +8°C° 0 mm 2 mps 715 mmHg 76%
    04:00 +8°C° 0 mm 2 mps 715 mmHg 77%
    05:00 +8°C° 0 mm 2 mps 714 mmHg 77%
    06:00 +9°C° 0 mm 3 mps 714 mmHg 73%
    07:00 +9°C° 0 mm 3 mps 714 mmHg 68%
    08:00 +10°C° 0 mm 4 mps 714 mmHg 64%
    09:00 +11°C° 0.1 mm 4 mps 714 mmHg 60%
    10:00 +13°C° 0.1 mm 5 mps 714 mmHg 56%
    11:00 +14°C° 0.1 mm 6 mps 713 mmHg 52%
    12:00 +15°C° 0.1 mm 7 mps 712 mmHg 54%
    13:00 +15°C° 0.1 mm 8 mps 711 mmHg 56%
    14:00 +15°C° 0.1 mm 9 mps 710 mmHg 59%
    15:00 +13°C° 0.3 mm 8 mps 709 mmHg 63%
    16:00 +13°C° 0.3 mm 8 mps 709 mmHg 67%
    17:00 +12°C° 0.3 mm 8 mps 708 mmHg 71%
    18:00 +12°C° 2 mm 8 mps 707 mmHg 73%
    19:00 +11°C° 2 mm 8 mps 707 mmHg 75%
    20:00 +10°C° 2 mm 8 mps 706 mmHg 77%
    21:00 +8°C° 2.8 mm 9 mps 706 mmHg 77%
    22:00 +8°C° 2.8 mm 10 mps 705 mmHg 77%
    23:00 +7°C° 2.8 mm 10 mps 705 mmHg 77%

    Day after tomorrow, 19 January, Friday

    Time Temperature Precipitation Wind Pressure Humidity
    00:00 +6°C° 0.6 mm 10 mps 705 mmHg 74%
    01:00 +6°C° 0.6 mm 9 mps 704 mmHg 71%
    02:00 +5°C° 0.6 mm 9 mps 704 mmHg 67%
    03:00 +5°C° 0.3 mm 10 mps 704 mmHg 70%
    04:00 +4°C° 0.3 mm 12 mps 705 mmHg 72%
    05:00 +4°C° 0.3 mm 13 mps 705 mmHg 75%
    06:00 +4°C° 0.7 mm 12 mps 706 mmHg 71%
    07:00 +5°C° 0.7 mm 10 mps 707 mmHg 67%
    08:00 +5°C° 0.7 mm 9 mps 708 mmHg 63%
    09:00 +6°C° 0.1 mm 9 mps 710 mmHg 55%
    10:00 +6°C° 0.1 mm 10 mps 711 mmHg 48%
    11:00 +7°C° 0.1 mm 10 mps 712 mmHg 40%
    12:00 +7°C° 0 mm 10 mps 712 mmHg 39%
    13:00 +8°C° 0 mm 9 mps 713 mmHg 37%
    14:00 +8°C° 0 mm 9 mps 713 mmHg 35%
    15:00 +7°C° 0 mm 8 mps 714 mmHg 41%
    16:00 +6°C° 0 mm 8 mps 715 mmHg 47%
    17:00 +6°C° 0 mm 7 mps 715 mmHg 52%
    18:00 +5°C° 0 mm 7 mps 716 mmHg 56%
    19:00 +5°C° 0 mm 6 mps 717 mmHg 60%
    20:00 +5°C° 0 mm 6 mps 718 mmHg 63%
    21:00 +4°C° 0 mm 6 mps 718 mmHg 64%
    22:00 +5°C° 0 mm 5 mps 719 mmHg 64%
    23:00 +5°C° 0 mm 5 mps 719 mmHg 64%

    20 January, Saturday

    Time Temperature Precipitation Wind Pressure Humidity
    00:00 +5°C° 0 mm 5 mps 720 mmHg 64%
    01:00 +5°C° 0 mm 4 mps 720 mmHg 64%
    02:00 +5°C° 0 mm 4 mps 720 mmHg 64%
    03:00 +5°C° 0 mm 4 mps 720 mmHg 64%
    04:00 +5°C° 0 mm 3 mps 721 mmHg 64%
    05:00 +5°C° 0 mm 3 mps 721 mmHg 64%
    06:00 +5°C° 0 mm 3 mps 721 mmHg 62%
    07:00 +7°C° 0 mm 3 mps 722 mmHg 60%
    08:00 +8°C° 0 mm 2 mps 723 mmHg 59%
    09:00 +9°C° 0 mm 3 mps 723 mmHg 53%
    10:00 +11°C° 0 mm 3 mps 723 mmHg 48%
    11:00 +13°C° 0 mm 3 mps 724 mmHg 42%
    12:00 +13°C° 0 mm 3 mps 723 mmHg 41%
    13:00 +14°C° 0 mm 3 mps 723 mmHg 40%
    14:00 +14°C° 0 mm 3 mps 723 mmHg 39%
    15:00 +14°C° 0 mm 2 mps 723 mmHg 44%
    16:00 +13°C° 0 mm 2 mps 723 mmHg 49%
    17:00 +12°C° 0 mm 1 mps 723 mmHg 54%
    18:00 +11°C° 0 mm 1 mps 723 mmHg 56%
    19:00 +10°C° 0 mm 1 mps 724 mmHg 59%
    20:00 +9°C° 0 mm 0 mps 724 mmHg 62%
    21:00 +10°C° 0 mm 1 mps 724 mmHg 61%
    22:00 +10°C° 0 mm 1 mps 724 mmHg 60%
    23:00 +9°C° 0 mm 1 mps 724 mmHg 59%

    21 January, Sunday

    Time Temperature Precipitation Wind Pressure Humidity
    00:00 +9°C° 0 mm 1 mps 724 mmHg 58%
    01:00 +8°C° 0 mm 2 mps 723 mmHg 58%
    02:00 +8°C° 0 mm 2 mps 723 mmHg 57%
    03:00 +8°C° 0 mm 2 mps 723 mmHg 56%
    04:00 +7°C° 0 mm 3 mps 723 mmHg 55%
    05:00 +7°C° 0 mm 3 mps 723 mmHg 53%
    06:00 +8°C° 0 mm 3 mps 723 mmHg 51%
    07:00 +7°C° 0 mm 4 mps 723 mmHg 49%
    08:00 +8°C° 0 mm 4 mps 723 mmHg 47%
    09:00 +11°C° 0 mm 4 mps 722 mmHg 40%
    10:00 +13°C° 0 mm 5 mps 722 mmHg 34%
    11:00 +14°C° 0 mm 5 mps 722 mmHg 27%
    12:00 +15°C° 0 mm 5 mps 721 mmHg 26%
    13:00 +16°C° 0 mm 5 mps 720 mmHg 24%
    14:00 +16°C° 0 mm 5 mps 720 mmHg 23%
    15:00 +15°C° 0 mm 5 mps 719 mmHg 26%
    16:00 +14°C° 0 mm 4 mps 719 mmHg 30%
    17:00 +13°C° 0 mm 4 mps 719 mmHg 34%
    18:00 +12°C° 0 mm 4 mps 718 mmHg 34%
    19:00 +12°C° 0 mm 4 mps 718 mmHg 34%
    20:00 +11°C° 0 mm 4 mps 718 mmHg 35%
    21:00 +11°C° 0 mm 4 mps 718 mmHg 35%
    22:00 +11°C° 0 mm 4 mps 717 mmHg 36%
    23:00 +10°C° 0 mm 4 mps 717 mmHg 36%

    22 January, Monday

    Time Temperature Precipitation Wind Pressure Humidity
    00:00 +10°C° 0 mm 3 mps 716 mmHg 38%
    01:00 +9°C° 0 mm 3 mps 716 mmHg 39%
    02:00 +9°C° 0 mm 2 mps 715 mmHg 40%
    03:00 +8°C° 0 mm 2 mps 715 mmHg 40%
    04:00 +8°C° 0 mm 2 mps 715 mmHg 40%
    05:00 +8°C° 0 mm 2 mps 715 mmHg 40%
    06:00 +8°C° 0 mm 2 mps 715 mmHg 40%
    07:00 +9°C° 0 mm 2 mps 715 mmHg 39%
    08:00 +10°C° 0 mm 2 mps 715 mmHg 39%
    09:00 +13°C° 0 mm 2 mps 715 mmHg 35%
    10:00 +15°C° 0 mm 2 mps 715 mmHg 31%
    11:00 +16°C° 0 mm 2 mps 715 mmHg 27%
    12:00 +17°C° 0 mm 2 mps 715 mmHg 27%
    13:00 +17°C° 0 mm 3 mps 714 mmHg 28%
    14:00 +18°C° 0 mm 3 mps 714 mmHg 28%
    15:00 +16°C° 0 mm 3 mps 714 mmHg 35%
    16:00 +14°C° 0 mm 3 mps 714 mmHg 43%
    17:00 +13°C° 0 mm 3 mps 713 mmHg 50%
    18:00 +12°C° 0.2 mm 3 mps 714 mmHg 57%
    19:00 +12°C° 0.2 mm 3 mps 714 mmHg 64%
    20:00 +11°C° 0.2 mm 3 mps 714 mmHg 71%
    21:00 +11°C° 0.3 mm 3 mps 714 mmHg 74%
    22:00 +11°C° 0.3 mm 4 mps 714 mmHg 77%
    23:00 +11°C° 0.3 mm 4 mps 714 mmHg 80%
    Show more